User: anonymous   Login
Location: Maiden
(35.5760°N, 81.2120°W)
Time: 01:09:31
(UTC-04:00)
Language:

Cosmos 2151 - Orbit

View from above orbital plane
View from above orbital plane
View from above satellite
View from above satellite

Ground track
Ground track

The orbit data is extracted from the following two-line orbital elements,

1 21422U 91042A   14298.80930087  .00003055  00000-0  31081-3 0   503
2 21422 082.5010 084.4747 0013331 276.3068 083.6632 14.90414516264618
Epoch (UTC): 25 October 2014 19:25:23
Eccentricity: 0.0013331
inclination: 82.5010°
perigee height: 587 km
apogee height: 606 km
right ascension of ascending node: 84.4747°
argument of perigee: 276.3068°
revolutions per day: 14.90414516
mean anomaly at epoch: 83.6632°
orbit number at epoch: 26461

The dashed part of the orbit path shows where the satellite is in the earth's shadow,  

DLR